FW4751 Weather Reports


Display with metric or nautical units.
time (UTC)temp
F
wind
direction
speed
MPH
gust
MPH
rain 1hr
in
rain 24hr
in
rain mn
in
humidity
%
barometer
mb
20260508015005 62 45 2.0 7.0 0.00 0.00 0.00 76 1017.2
20260508014504 62 45 3.0 7.0 0.00 0.00 0.00 76 1017.1
20260508014004 62 45 4.0 9.0 0.00 0.00 0.00 75 1017.1
20260508013505 63 45 4.0 8.0 0.00 0.00 0.00 75 1017.3
20260508013004 63 45 3.0 8.0 0.00 0.00 0.00 75 1017.0
20260508012504 63 45 3.0 9.0 0.00 0.00 0.00 75 1017.0
20260508012004 63 45 4.0 10.0 0.00 0.00 0.00 75 1017.1
20260508011504 63 45 4.0 8.0 0.00 0.00 0.00 74 1017.2
20260508011004 63 45 3.0 7.0 0.00 0.00 0.00 74 1017.1
20260508010504 63 45 4.0 11.0 0.00 0.00 0.00 73 1017.0
20260508010004 64 45 4.0 9.0 0.00 0.00 0.00 72 1017.1
20260508005504 64 45 4.0 8.0 0.00 0.00 0.00 72 1017.2
20260508005004 64 45 3.0 10.0 0.00 0.00 0.00 71 1017.3
20260508004504 65 45 5.0 11.0 0.00 0.00 0.00 70 1017.4
20260508004004 65 23 4.0 8.0 0.00 0.00 0.00 69 1017.3
20260508003504 66 45 3.0 8.0 0.00 0.00 0.00 69 1017.3
20260508003006 66 338 3.0 10.0 0.00 0.00 0.00 69 1017.2
20260508002504 66 45 3.0 9.0 0.00 0.00 0.00 69 1017.2
20260508002004 66 45 4.0 10.0 0.00 0.00 0.00 68 1017.1
20260508001504 67 45 4.0 9.0 0.00 0.00 0.00 67 1017.1
20260508001004 67 45 3.0 8.0 0.00 0.00 0.00 67 1017.2
20260508000504 67 338 3.0 10.0 0.00 0.00 0.00 67 1017.2
20260508000004 67 45 3.0 8.0 0.00 0.00 0.00 66 1017.2
20260507235504 67 338 3.0 8.0 0.00 0.00 0.00 66 1017.2
20260507235024 67 45 4.0 9.0 0.00 0.00 0.00 65 1017.2
20260507234504 68 45 3.0 7.0 0.00 0.00 0.00 64 1017.2
20260507234005 68 338 3.0 8.0 0.00 0.00 0.00 66 1017.3
20260507233504 67 45 4.0 9.0 0.00 0.00 0.00 66 1017.2
20260507233004 67 338 2.0 7.0 0.00 0.00 0.00 67 1017.2
20260507232504 67 45 4.0 8.0 0.00 0.00 0.00 67 1017.3
20260507232024 68 45 3.0 7.0 0.00 0.00 0.00 67 1017.3
20260507231504 68 45 3.0 7.0 0.00 0.00 0.00 67 1017.4
20260507231004 68 45 3.0 5.0 0.00 0.00 0.00 68 1017.4
20260507230504 68 338 2.0 6.0 0.00 0.00 0.00 68 1017.4
20260507230024 67 45 3.0 7.0 0.00 0.00 0.00 68 1017.4
20260507225504 67 45 2.0 6.0 0.00 0.00 0.00 69 1017.4
20260507225004 67 45 3.0 7.0 0.00 0.00 0.00 69 1017.4
20260507224504 67 45 4.0 8.0 0.00 0.00 0.00 69 1017.5
20260507224004 68 45 4.0 9.0 0.00 0.00 0.00 68 1017.5
20260507223504 68 45 3.0 6.0 0.00 0.00 0.00 69 1017.4
20260507223004 67 45 3.0 7.0 0.00 0.00 0.00 69 1017.5
20260507222504 67 45 3.0 8.0 0.00 0.00 0.00 69 1017.6
20260507222004 67 45 3.0 8.0 0.00 0.00 0.00 68 1017.8
20260507221504 68 68 3.0 6.0 0.00 0.00 0.00 68 1017.8
20260507221024 68 338 3.0 7.0 0.00 0.00 0.00 69 1017.8
20260507220524 67 45 3.0 7.0 0.00 0.00 0.00 68 1017.9
20260507220044 67 315 2.0 5.0 0.00 0.00 0.00 70 1018.0
20260507215504 67 45 3.0 7.0 0.00 0.00 0.00 70 1018.0
20260507215024 67 338 3.0 6.0 0.00 0.00 0.00 70 1018.1
20260507214524 67 23 3.0 6.0 0.00 0.00 0.00 70 1018.2
20260507214004 66 45 4.0 9.0 0.00 0.00 0.00 71 1018.2
20260507213504 66 45 3.0 7.0 0.00 0.00 0.00 71 1018.2
20260507213004 66 45 4.0 8.0 0.00 0.00 0.00 70 1018.3
20260507212504 66 45 3.0 7.0 0.00 0.00 0.00 70 1018.4
20260507212004 66 45 3.0 9.0 0.00 0.00 0.00 70 1018.3
20260507211503 67 45 3.0 8.0 0.00 0.00 0.00 69 1018.4
20260507211024 67 45 3.0 7.0 0.00 0.00 0.00 70 1018.4
20260507210503 67 45 3.0 8.0 0.00 0.00 0.00 70 1018.6
20260507210003 66 45 3.0 9.0 0.00 0.00 0.00 70 1018.5
20260507205503 67 68 2.0 6.0 0.00 0.00 0.00 70 1018.6
20260507205024 66 45 3.0 7.0 0.00 0.00 0.00 70 1018.6
20260507204504 66 45 2.0 7.0 0.00 0.00 0.00 73 1018.7
20260507204004 65 68 3.0 7.0 0.00 0.00 0.00 72 1018.7
20260507203504 65 45 3.0 7.0 0.00 0.00 0.00 72 1018.7
20260507203003 65 45 2.0 5.0 0.00 0.00 0.00 71 1018.8
20260507202504 66 68 2.0 6.0 0.00 0.00 0.00 71 1018.9
20260507202004 65 45 2.0 6.0 0.00 0.00 0.00 72 1019.0
20260507201504 65 68 3.0 6.0 0.00 0.00 0.00 71 1019.1
20260507201003 65 68 2.0 5.0 0.00 0.00 0.00 71 1019.1
20260507200503 65 45 2.0 5.0 0.00 0.00 0.00 72 1019.1
20260507200004 65 45 2.0 7.0 0.00 0.00 0.00 72 1019.2
20260507195504 64 45 2.0 6.0 0.00 0.00 0.00 72 1019.3
20260507195004 65 45 2.0 4.0 0.00 0.00 0.00 72 1019.4
20260507194503 64 45 3.0 6.0 0.00 0.00 0.00 72 1019.3
20260507194003 65 45 2.0 8.0 0.00 0.00 0.00 71 1019.4
20260507193503 65 45 3.0 7.0 0.00 0.00 0.00 71 1019.4
20260507193003 65 45 2.0 5.0 0.00 0.00 0.00 71 1019.5
20260507192503 65 45 2.0 5.0 0.00 0.00 0.00 72 1019.5
20260507192004 64 45 2.0 5.0 0.00 0.00 0.00 73 1019.5
20260507191503 64 45 2.0 6.0 0.00 0.00 0.00 74 1019.6
20260507191004 64 45 2.0 5.0 0.00 0.00 0.00 74 1019.6
20260507190523 64 68 2.0 5.0 0.00 0.00 0.00 75 1019.8
20260507190004 63 113 1.0 4.0 0.00 0.00 0.00 77 1019.7
20260507185503 62 68 2.0 4.0 0.00 0.00 0.00 77 1019.8
20260507185003 62 45 2.0 3.0 0.00 0.00 0.00 78 1019.8
20260507184504 62 45 2.0 5.0 0.00 0.00 0.00 78 1019.8
20260507184003 61 45 2.0 6.0 0.00 0.00 0.00 78 1019.9
20260507183503 62 45 2.0 6.0 0.00 0.00 0.00 78 1019.9
20260507183003 62 68 2.0 4.0 0.00 0.00 0.00 78 1020.0
20260507182503 62 68 1.0 3.0 0.00 0.00 0.00 78 1020.0
20260507182023 61 45 2.0 4.0 0.00 0.00 0.00 78 1020.0
20260507181503 61 68 1.0 4.0 0.00 0.00 0.00 78 1019.9
20260507181003 61 45 1.0 3.0 0.00 0.00 0.00 78 1019.9
20260507180503 61 45 1.0 2.0 0.00 0.00 0.00 79 1019.9
20260507180003 61 45 1.0 3.0 0.00 0.00 0.00 79 1019.9
20260507175503 61 0.0 2.0 0.00 0.00 0.00 80 1019.9
20260507175003 61 45 1.0 3.0 0.00 0.00 0.00 80 1019.9
20260507174523 60 225 1.0 2.0 0.00 0.00 0.00 81 1019.8
20260507174003 60 293 1.0 2.0 0.00 0.00 0.00 81 1019.9
20260507173503 60 225 1.0 2.0 0.00 0.00 0.00 81 1020.0
20260507173004 60 293 1.0 2.0 0.00 0.00 0.00 82 1019.9
20260507172503 60 90 1.0 2.0 0.00 0.00 0.00 82 1019.9
20260507172023 60 315 1.0 2.0 0.00 0.00 0.00 83 1019.9
20260507171504 59 315 1.0 2.0 0.00 0.00 0.00 83 1019.8
20260507171003 59 315 1.0 2.0 0.00 0.00 0.00 84 1019.8
20260507170503 58 135 1.0 2.0 0.00 0.00 0.00 84 1019.8
20260507170003 58 135 1.0 2.0 0.00 0.00 0.00 84 1019.8
20260507165523 58 113 1.0 3.0 0.00 0.00 0.00 85 1019.9
20260507165023 58 113 1.0 3.0 0.00 0.00 0.00 85 1019.9
20260507164503 58 135 1.0 3.0 0.00 0.00 0.00 84 1019.7
20260507164008 58 135 1.0 2.0 0.00 0.00 0.00 85 1019.9
20260507163503 57 45 1.0 2.0 0.00 0.00 0.00 86 1019.8
20260507163003 57 45 1.0 2.0 0.00 0.00 0.00 86 1019.8
20260507162503 57 0 1.0 3.0 0.00 0.00 0.00 86 1019.9
20260507162003 57 45 1.0 3.0 0.00 0.00 0.00 86 1019.9
20260507161503 57 45 1.0 2.0 0.00 0.00 0.00 86 1019.8
20260507161003 57 45 1.0 2.0 0.00 0.00 0.00 86 1019.9
20260507160503 57 113 1.0 2.0 0.00 0.00 0.00 87 1019.9
20260507160003 57 0.0 2.0 0.00 0.00 0.00 87 1019.8
20260507155503 57 0 1.0 2.0 0.00 0.00 0.00 87 1019.8
20260507155003 57 270 1.0 2.0 0.00 0.00 0.00 87 1019.9
20260507154503 57 270 1.0 1.0 0.00 0.00 0.00 87 1019.9
20260507154003 57 45 1.0 2.0 0.00 0.00 0.00 87 1019.9
20260507153504 57 45 1.0 3.0 0.00 0.00 0.00 87 1019.8
20260507153002 56 0.0 1.0 0.00 0.00 0.00 87 1019.8
20260507152503 56 45 1.0 3.0 0.00 0.00 0.00 87 1019.7
20260507152005 56 0.0 2.0 0.00 0.00 0.00 87 1019.8
20260507151505 56 0.0 2.0 0.00 0.00 0.00 87 1019.8
20260507151005 56 0 1.0 2.0 0.00 0.00 0.00 87 1019.8
20260507150503 56 68 1.0 2.0 0.00 0.00 0.00 87 1019.7
20260507150006 56 0.0 2.0 0.00 0.00 0.00 87 1019.8
20260507145504 56 315 1.0 2.0 0.00 0.00 0.00 87 1019.7
20260507145025 56 0.0 1.0 0.00 0.00 0.00 87 1019.8
20260507144505 56 45 1.0 2.0 0.00 0.00 0.00 86 1019.8
20260507144005 56 338 1.0 3.0 0.00 0.00 0.00 86 1019.8
20260507143505 56 338 1.0 3.0 0.00 0.00 0.00 86 1019.8
20260507143005 56 45 1.0 2.0 0.00 0.00 0.00 86 1019.8
20260507142531 56 0 1.0 2.0 0.00 0.00 0.00 86 1019.7
20260507142025 56 45 1.0 2.0 0.00 0.00 0.00 86 1019.7
20260507141504 56 0 1.0 3.0 0.00 0.00 0.00 86 1019.6
20260507141004 56 45 1.0 3.0 0.00 0.00 0.00 86 1019.6
20260507140504 56 45 1.0 3.0 0.00 0.00 0.00 86 1019.6
20260507140006 56 0.0 2.0 0.00 0.00 0.00 86 1019.4
20260507135505 56 45 1.0 2.0 0.00 0.00 0.00 86 1019.5
20260507135005 56 45 1.0 3.0 0.00 0.00 0.00 86 1019.5
20260507134505 56 338 1.0 3.0 0.00 0.00 0.00 86 1019.5
20260507134005 56 45 1.0 4.0 0.00 0.00 0.00 86 1019.5
20260507133505 56 0 1.0 3.0 0.00 0.00 0.00 86 1019.5
20260507133004 56 45 1.0 3.0 0.00 0.00 0.00 86 1019.4
20260507132505 56 0 1.0 2.0 0.00 0.00 0.00 86 1019.3
20260507132025 56 45 1.0 2.0 0.00 0.00 0.00 86 1019.3
20260507131505 56 45 1.0 3.0 0.00 0.00 0.00 86 1019.2
20260507131005 56 45 2.0 4.0 0.00 0.00 0.00 86 1019.3
20260507130505 56 45 1.0 2.0 0.00 0.00 0.00 86 1019.3
20260507130005 56 45 1.0 4.0 0.00 0.00 0.00 86 1019.2
20260507125504 56 68 1.0 2.0 0.00 0.00 0.00 86 1019.3
20260507125004 56 0.0 2.0 0.00 0.00 0.00 86 1019.1
20260507124504 56 45 1.0 3.0 0.00 0.00 0.00 86 1019.2
20260507124004 56 45 1.0 3.0 0.00 0.00 0.00 86 1019.1
20260507123505 56 338 1.0 3.0 0.00 0.00 0.00 86 1019.1
20260507123005 56 45 1.0 3.0 0.00 0.00 0.00 86 1019.1
20260507122504 56 45 1.0 2.0 0.00 0.00 0.00 86 1019.2
20260507122005 56 338 1.0 3.0 0.00 0.00 0.00 87 1019.2
20260507121505 56 45 1.0 3.0 0.00 0.00 0.00 87 1019.1
20260507121004 56 45 1.0 2.0 0.00 0.00 0.00 87 1019.2
20260507120525 56 0 1.0 3.0 0.00 0.00 0.00 87 1019.2
20260507120005 56 0 1.0 2.0 0.00 0.00 0.00 87 1019.2
20260507115504 56 45 1.0 3.0 0.00 0.00 0.00 87 1019.3
20260507115025 56 0 1.0 3.0 0.00 0.00 0.00 87 1019.3
20260507114504 56 0.0 2.0 0.00 0.00 0.00 87 1019.4
20260507114004 56 45 1.0 3.0 0.00 0.00 0.00 87 1019.4
20260507113504 56 45 1.0 3.0 0.00 0.00 0.00 86 1019.4
20260507113005 57 0 1.0 3.0 0.00 0.00 0.00 87 1019.5
20260507112505 57 0 1.0 2.0 0.00 0.00 0.00 87 1019.4
20260507112026 57 0 1.0 3.0 0.00 0.00 0.00 87 1019.4
20260507111506 57 0 1.0 2.0 0.00 0.00 0.00 87 1019.4
20260507111004 57 0 1.0 3.0 0.00 0.00 0.00 86 1019.4
20260507110524 57 45 1.0 3.0 0.00 0.00 0.00 86 1019.4
20260507110005 57 45 1.0 2.0 0.00 0.00 0.00 86 1019.4
20260507105504 56 45 1.0 2.0 0.00 0.00 0.00 86 1019.4
20260507105005 56 0.0 1.0 0.00 0.00 0.00 86 1019.5
20260507104505 56 0.0 2.0 0.00 0.00 0.00 86 1019.5
20260507104004 56 0 1.0 2.0 0.00 0.00 0.00 86 1019.5
20260507103504 56 338 1.0 3.0 0.00 0.00 0.00 86 1019.5
20260507103004 56 0 1.0 3.0 0.00 0.00 0.00 86 1019.5
20260507102504 56 0 1.0 2.0 0.00 0.00 0.00 86 1019.6
20260507102024 56 338 1.0 3.0 0.00 0.00 0.00 86 1019.4
20260507101504 56 0 1.0 2.0 0.00 0.00 0.00 86 1019.6
20260507101004 56 0 1.0 2.0 0.00 0.00 0.00 86 1019.5
20260507100504 56 0 1.0 2.0 0.00 0.00 0.00 86 1019.3
20260507100005 56 338 1.0 3.0 0.00 0.00 0.00 86 1019.4
20260507095524 56 338 1.0 3.0 0.00 0.00 0.00 86 1019.4
20260507095004 56 0 1.0 4.0 0.00 0.00 0.00 86 1019.4
20260507094504 56 0 1.0 3.0 0.00 0.00 0.00 86 1019.4
20260507094005 56 0 2.0 4.0 0.00 0.00 0.00 86 1019.5
20260507093504 57 0 1.0 3.0 0.00 0.00 0.00 86 1019.5
20260507093004 56 45 1.0 3.0 0.00 0.00 0.00 86 1019.6
20260507092504 57 45 1.0 3.0 0.00 0.00 0.00 86 1019.6
20260507092004 56 0 1.0 2.0 0.00 0.00 0.00 87 1019.6
20260507091504 57 0 1.0 3.0 0.00 0.00 0.00 87 1019.6
20260507091004 57 0 1.0 2.0 0.00 0.00 0.00 87 1019.7
20260507090504 56 0 1.0 2.0 0.00 0.00 0.00 86 1019.7
20260507090005 56 0 1.0 2.0 0.00 0.00 0.00 86 1019.8
20260507085504 56 0.0 2.0 0.00 0.00 0.00 86 1019.7
20260507085004 57 0.0 2.0 0.00 0.00 0.00 86 1019.9
20260507084504 57 0.0 1.0 0.00 0.00 0.00 86 1019.8
20260507084004 57 0.0 1.0 0.00 0.00 0.00 86 1019.8
20260507083504 57 0.0 1.0 0.00 0.00 0.00 86 1019.7
20260507083024 57 0.0 1.0 0.00 0.00 0.00 86 1019.9
20260507082504 57 203 1.0 3.0 0.00 0.00 0.00 86 1019.8
20260507082024 57 158 1.0 3.0 0.00 0.00 0.00 86 1019.8
20260507081505 57 180 1.0 2.0 0.00 0.00 0.00 86 1019.8
20260507081004 57 23 1.0 2.0 0.00 0.00 0.00 86 1019.9
20260507080504 57 0.0 1.0 0.00 0.00 0.00 85 1019.8
20260507080024 57 0.0 1.0 0.00 0.00 0.00 85 1019.9
20260507075524 57 0.0 1.0 0.00 0.00 0.00 85 1019.9
20260507075004 57 0.0 2.0 0.00 0.00 0.00 85 1019.9
20260507074504 57 0.0 2.0 0.00 0.00 0.00 85 1019.9
20260507074004 57 0.0 1.0 0.00 0.00 0.00 85 1019.8
20260507073504 57 0.0 2.0 0.00 0.00 0.00 85 1019.7
20260507073004 57 0.0 1.0 0.00 0.00 0.00 85 1019.8
20260507072524 57 0.0 2.0 0.00 0.00 0.00 85 1019.8
20260507072003 57 0.0 1.0 0.00 0.00 0.00 84 1019.9
20260507071504 57 0.0 2.0 0.00 0.00 0.00 84 1019.9
20260507071023 57 45 1.0 2.0 0.00 0.00 0.00 84 1019.8
20260507070504 57 0.0 2.0 0.00 0.00 0.00 84 1019.9
20260507070010 57 0.0 1.0 0.00 0.00 0.00 84 1019.8
20260507065504 57 0.0 2.0 0.00 0.00 0.00 84 1019.9
20260507065003 57 0.0 1.0 0.00 0.00 0.00 84 1019.9
20260507064504 57 45 1.0 3.0 0.00 0.00 0.00 84 1020.0
20260507064004 57 45 1.0 2.0 0.00 0.00 0.00 84 1020.0
20260507063524 57 45 1.0 3.0 0.00 0.00 0.00 85 1019.9
20260507063003 57 0.0 3.0 0.00 0.00 0.00 85 1019.9
20260507062504 57 45 1.0 3.0 0.00 0.00 0.00 85 1019.9
20260507062003 57 45 1.0 2.0 0.00 0.00 0.00 85 1019.9
20260507061503 57 45 1.0 2.0 0.00 0.00 0.00 85 1020.0
20260507061004 57 45 1.0 2.0 0.00 0.00 0.00 85 1020.0
20260507060504 57 45 1.0 2.0 0.00 0.00 0.00 85 1019.9
20260507060004 57 0.0 2.0 0.00 0.00 0.00 85 1020.0
20260507055503 57 45 1.0 2.0 0.00 0.00 0.00 85 1019.9
20260507055004 57 0.0 2.0 0.00 0.00 0.00 85 1020.0
20260507054504 57 0.0 1.0 0.00 0.00 0.00 85 1019.9
20260507054003 57 0.0 1.0 0.00 0.00 0.00 84 1019.9
20260507053603 57 0.0 1.0 0.00 0.00 0.00 84 1020.0
20260507053023 57 0.0 1.0 0.00 0.00 0.00 83 1019.9
20260507052503 57 0.0 1.0 0.00 0.00 0.00 83 1019.9
20260507052004 57 0.0 1.0 0.00 0.00 0.00 83 1020.0
20260507051504 57 0.0 2.0 0.00 0.00 0.00 83 1019.9
20260507051003 58 0 1.0 2.0 0.00 0.00 0.00 82 1019.9
20260507050503 58 0.0 1.0 0.00 0.00 0.00 82 1019.9
20260507050004 58 0.0 2.0 0.00 0.00 0.00 82 1020.0
20260507045503 58 0.0 2.0 0.00 0.00 0.00 82 1019.9
20260507045003 58 0.0 2.0 0.00 0.00 0.00 81 1019.9
20260507044504 58 45 1.0 2.0 0.00 0.00 0.00 81 1019.9
20260507044003 58 45 1.0 2.0 0.00 0.00 0.00 81 1020.0
20260507043503 58 45 1.0 4.0 0.00 0.00 0.00 81 1019.9
20260507043004 58 45 1.0 3.0 0.00 0.00 0.00 80 1019.8
20260507042503 58 45 1.0 4.0 0.00 0.00 0.00 80 1019.8
20260507042003 59 45 1.0 3.0 0.00 0.00 0.00 80 1019.7
20260507041503 59 45 1.0 3.0 0.00 0.00 0.00 79 1019.8
20260507041003 59 45 2.0 5.0 0.00 0.00 0.00 79 1019.6
20260507040503 59 338 2.0 4.0 0.00 0.00 0.00 78 1019.5
20260507040003 59 45 1.0 7.0 0.00 0.00 0.00 78 1019.4
20260507035503 59 338 2.0 5.0 0.00 0.00 0.00 78 1019.4
20260507035003 60 338 2.0 5.0 0.00 0.00 0.00 77 1019.4
20260507034503 60 338 2.0 7.0 0.00 0.00 0.00 77 1019.4
20260507034023 60 0 3.0 8.0 0.00 0.00 0.00 77 1019.3
20260507033503 61 45 2.0 6.0 0.00 0.00 0.00 76 1019.3
20260507033003 61 45 2.0 6.0 0.00 0.00 0.00 76 1019.2
20260507032504 61 45 2.0 5.0 0.00 0.00 0.00 75 1019.0
20260507032003 62 45 2.0 5.0 0.00 0.00 0.00 75 1019.0
20260507031503 62 45 2.0 6.0 0.00 0.00 0.00 74 1018.9
20260507031003 62 338 2.0 5.0 0.00 0.00 0.00 74 1018.9
20260507030503 63 23 2.0 6.0 0.00 0.00 0.00 73 1018.7
20260507030003 63 338 2.0 6.0 0.00 0.00 0.00 73 1018.8
20260507025504 63 23 2.0 5.0 0.00 0.00 0.00 72 1018.7
20260507025003 64 45 2.0 7.0 0.00 0.00 0.00 72 1018.6
20260507024503 64 45 2.0 5.0 0.00 0.00 0.00 71 1018.4
20260507024003 65 45 2.0 7.0 0.00 0.00 0.00 70 1018.2
20260507023503 65 45 2.0 5.0 0.00 0.00 0.00 70 1018.2
20260507023003 66 45 2.0 6.0 0.00 0.00 0.00 69 1018.4
20260507022523 66 0 2.0 6.0 0.00 0.00 0.00 68 1018.3
20260507022023 67 338 3.0 7.0 0.00 0.00 0.00 68 1018.3
20260507021503 67 338 2.0 6.0 0.00 0.00 0.00 67 1018.2
20260507021003 67 338 3.0 7.0 0.00 0.00 0.00 67 1018.1
20260507020523 68 338 3.0 7.0 0.00 0.00 0.00 66 1018.1
20260507020003 68 45 3.0 7.0 0.00 0.00 0.00 66 1018.2
20260507015503 69 45 3.0 7.0 0.00 0.00 0.00 65 1018.3